Location: Poughquag
(41.6090°N, 73.6820°W)
Time: 10:22:20
(UTC-05:00)

Vanguard 1 - Pass Details

Date: 30 November 2023
Orbit: 653 x 3826 km, 34.3° (Epoch: 25 February)

Event Time Altitude Azimuth Distance (km) Brightness Sun altitude
Rises 21:31:09 0° 265° (W) 7,090 14.9 -55.9°
Reaches altitude 10° 21:35:25 10° 264° (W) 6,351 14.5 -56.6°
Enters shadow 21:51:21 57° 241° (WSW) 4,242 13.0 -59.2°
Maximum altitude 21:57:37 70° 186° (S) 3,962 - -60.2°
Drops below altitude 10° 22:18:27 10° 109° (ESE) 6,014 - -63.3°
Sets 22:22:22 0° 107° (ESE) 6,717 - -63.8°
